Terminal Aerodrome Forecast
Issued by NWS

Home | Current Version | Previous Version | Text Only | Print | Product List | Glossary On
Versions: 1 2 3 4 5 6 7 8 9 10 11 12 13 14 15
000
FTUS43 KOAX 270003 RRA
TAFBFF
TAF
KBFF 270003Z 2700/2724 33016G23KT P6SM BKN080
     FM270200 34006KT P6SM SCT050 BKN100
     FM271600 31015G25KT P6SM BKN200=

USA.gov is the U.S. government's official web portal to all federal, state and local government web resources and services.